CW1656 Weather Reports


Display with metric or nautical units.
time (UTC)temp
F
wind
direction
speed
MPH
gust
MPH
rain 1hr
in
rain 24hr
in
rain mn
in
humidity
%
barometer
mb
20260902031519 69 273 0.0 0.0 0.00 0.04 0.04 97 1016.4
20260902030013 69 272 0.0 0.0 0.00 0.04 0.04 97 1016.4
20260902024512 69 273 0.0 0.0 0.00 0.04 0.04 97 1016.5
20260902023012 69 273 0.0 0.0 0.00 0.04 0.04 97 1016.6
20260902021520 69 273 0.0 0.0 0.00 0.04 0.04 96 1016.5
20260902020011 69 273 0.0 0.0 0.00 0.04 0.04 96 1016.6
20260902014529 70 273 0.0 0.0 0.00 0.04 0.04 96 1016.6
20260902013010 70 273 0.0 0.0 0.00 0.04 0.04 96 1016.6
20260902011511 70 273 0.0 0.0 0.00 0.04 0.04 95 1016.5
20260902010014 71 273 0.0 0.0 0.00 0.04 0.04 95 1016.3
20260902004508 71 273 0.0 0.0 0.00 0.04 0.04 95 1016.1
20260902003008 72 273 0.0 0.0 0.00 0.04 0.04 94 1015.8
20260902001507 72 273 0.0 0.0 0.00 0.04 0.04 94 1015.7
20260902000006 73 273 0.0 0.0 0.00 0.04 0.04 93 1015.3
20260901234516 73 273 0.0 0.0 0.00 0.04 0.04 93 1015.4
20260901233005 74 273 0.0 0.0 0.00 0.04 0.04 93 1015.4
20260901231504 74 273 0.0 0.0 0.00 0.04 0.04 92 1015.5
20260901230011 75 273 0.0 0.0 0.00 0.04 0.04 91 1015.7
20260901224504 76 273 0.0 0.0 0.00 0.04 0.04 90 1015.7
20260901223003 77 273 0.0 3.0 0.00 0.04 0.04 89 1015.6
20260901221505 77 312 0.0 2.0 0.00 0.04 0.04 88 1015.6
20260901220001 78 263 0.0 4.0 0.00 0.04 0.04 87 1015.4
20260901214501 78 279 0.0 3.0 0.00 0.04 0.04 88 1015.4
20260901213001 78 279 1.0 4.0 0.00 0.04 0.04 87 1015.5
20260901211600 78 265 1.0 4.0 0.00 0.04 0.04 88 1015.6
20260901210059 77 281 1.0 3.0 0.00 0.04 0.04 88 1015.3
20260901204559 77 277 0.0 2.0 0.00 0.06 0.04 90 1015.3
20260901203104 77 278 0.0 2.0 0.00 0.06 0.04 89 1015.4
20260901201558 76 300 0.0 1.0 0.00 0.06 0.04 89 1015.6
20260901200057 77 235 0.0 3.0 0.00 0.06 0.04 88 1015.7
20260901194556 78 282 0.0 4.0 0.00 0.10 0.04 87 1015.6
20260901193107 78 277 0.0 5.0 0.00 0.10 0.04 86 1015.5
20260901191656 78 180 1.0 6.0 0.00 0.10 0.04 86 1015.5
20260901190054 78 316 1.0 5.0 0.00 0.10 0.04 88 1015.6
20260901184557 78 271 2.0 9.0 0.00 0.44 0.04 87 1015.6
20260901183057 79 296 0.0 4.0 0.00 0.44 0.04 87 1015.6
20260901181553 79 340 2.0 7.0 0.00 0.44 0.04 85 1015.5
20260901180052 79 227 1.0 5.0 0.00 0.44 0.04 87 1015.4
20260901174551 78 225 0.0 8.0 0.00 0.61 0.04 88 1015.1
20260901173050 80 285 3.0 8.0 0.00 0.61 0.04 84 1015.0
20260901171557 80 5 0.0 7.0 0.00 0.61 0.04 83 1014.9
20260901170050 80 44 0.0 7.0 0.00 0.61 0.04 83 1014.9
20260901164549 81 61 0.0 4.0 0.00 0.66 0.04 81 1014.9
20260901163049 81 275 0.0 3.0 0.00 0.66 0.04 83 1014.8
20260901161547 80 58 0.0 5.0 0.00 0.66 0.04 84 1014.8
20260901160052 79 276 0.0 5.0 0.00 0.66 0.04 88 1014.8
20260901154539 78 315 0.0 4.0 0.00 0.73 0.04 88 1014.9
20260901153039 78 295 0.0 2.0 0.00 0.73 0.04 92 1014.8
20260901151533 76 30 0.0 4.0 0.00 0.73 0.04 95 1014.8
20260901150031 74 293 0.0 4.0 0.00 0.73 0.04 98 1014.9
20260901144525 73 292 1.0 4.0 0.00 0.82 0.04 99 1015.0
20260901143021 73 301 0.0 9.0 0.00 0.82 0.04 99 1014.9
20260901141516 72 276 1.0 4.0 0.00 0.82 0.04 99 1014.7
20260901140012 72 290 1.0 4.0 0.00 0.82 0.04 99 1014.7
20260901134508 72 327 0.0 7.0 0.00 0.98 0.04 99 1014.6
20260901133003 71 282 0.0 3.0 0.00 0.98 0.04 99 1014.8
20260901131602 71 173 0.0 1.0 0.00 0.98 0.04 99 1014.9
20260901130108 71 173 0.0 1.0 0.00 0.98 0.04 99 1014.9
20260901124601 69 173 0.0 0.0 0.00 1.06 0.04 99 1015.0
20260901123051 69 173 0.0 0.0 0.00 1.06 0.04 99 1015.0
20260901121555 69 173 0.0 0.0 0.00 1.06 0.04 99 1014.9
20260901120059 69 173 0.0 0.0 0.00 1.06 0.04 99 1014.6
20260901114549 69 173 0.0 0.0 0.00 1.08 0.04 99 1014.5
20260901113109 69 173 0.0 0.0 0.00 1.08 0.04 99 1014.6
20260901111547 68 173 0.0 1.0 0.00 1.08 0.04 99 1014.8
20260901104546 68 173 0.0 0.0 0.00 1.08 0.04 99 1014.2
20260901103049 68 173 0.0 0.0 0.00 1.08 0.04 99 1014.3
20260901101608 68 173 0.0 1.0 0.00 1.08 0.04 99 1014.3
20260901100100 68 173 0.0 2.0 0.00 1.08 0.04 99 1014.1
20260901094546 68 173 0.0 2.0 0.00 1.08 0.04 99 1014.1
20260901093043 68 173 0.0 0.0 0.00 1.08 0.04 99 1014.2
20260901091542 68 173 0.0 0.0 0.00 1.08 0.04 99 1014.3
20260901090045 68 173 0.0 2.0 0.00 1.08 0.04 99 1014.2
20260901084545 68 173 0.0 2.0 0.00 1.09 0.04 99 1014.4
20260901083041 68 173 0.0 3.0 0.01 1.09 0.04 99 1014.2
20260901081542 68 173 0.0 3.0 0.01 1.09 0.04 99 1014.1
20260901080042 68 173 0.0 2.0 0.01 1.09 0.04 99 1014.3
20260901074536 68 173 1.0 2.0 0.01 1.09 0.04 99 1014.4
20260901073040 68 173 0.0 2.0 0.00 1.08 0.03 99 1015.0
20260901071533 68 173 0.0 5.0 0.00 1.08 0.03 99 1015.0
20260901070029 68 162 0.0 3.0 0.00 1.08 0.03 99 1015.2
20260901064530 68 163 0.0 2.0 0.00 1.08 0.03 99 1015.3
20260901063026 68 163 0.0 1.0 0.00 1.08 0.03 99 1015.6
20260901061525 68 163 0.0 1.0 0.01 1.08 0.03 99 1015.8
20260901060023 68 163 0.0 0.0 0.01 1.08 0.03 99 1016.0
20260901054523 68 163 0.0 0.0 0.02 1.08 0.03 99 1016.0
20260901053022 68 163 0.0 2.0 0.03 1.08 0.03 99 1016.1
20260901051520 69 163 0.0 1.0 0.02 1.07 0.02 99 1016.3
20260901050019 69 163 0.0 2.0 0.02 1.07 0.02 99 1016.5
20260901044517 69 163 0.0 0.0 0.01 1.06 0.01 99 1016.8
20260901043021 69 163 0.0 2.0 0.00 1.05 0.00 99 1016.6
20260901041514 69 163 1.0 2.0 0.00 1.05 0.00 99 1016.6
20260901040012 69 136 0.0 0.0 0.00 1.05 0.00 99 1016.6
20260901034513 69 136 0.0 0.0 0.00 1.05 1.05 99 1016.7
20260901033011 69 136 0.0 0.0 0.00 1.05 1.05 99 1016.9